Preview of NWS' New Version of Forecast
This preview is not operational and should not be used for support decisions.
Latest weather observations around

Oakland, Metro Oakland International Airport (KOAK)

Using English Units (Switch to International System of Units)
Date/ Time (PDT) Wind (mph) Vis. (mi) Weather Sky Cond. Temp (°F) Rel. Humidity Wind Chill (°F) Heat Index (°F) Pressure Precip. (in)
Air Dwpt 6 hour Altimeter (inHg) Sea level (inHg) 1 hr 3 hr 6 hr
Max Min
Jun 20 01:53 WSW 11 10 Cloudy OVC012 62 55     78%     29.9 29.9      
Jun 20 00:53 W 7 10 Cloudy FEW005 OVC012 62 55     78%     29.91 29.91      
Jun 19 23:53 W 13 10 Mostly Cloudy FEW005 SCT008 BKN012 61 55     81%     29.92 29.91      
Jun 19 22:53 W 9 10 Mostly Cloudy FEW005 SCT008 BKN016 62 56     80%     29.93 29.92      
Jun 19 22:41 W 11 10 Mostly Cloudy FEW005 SCT008 BKN016 61 56     83%     29.93        
Jun 19 21:53 W 14 10 Mostly Cloudy FEW005 BKN008 62 56     80%     29.92 29.92      
Jun 19 20:53 WNW 11 10 Mostly Cloudy FEW005 BKN008 61 55     81%     29.91 29.91      
Jun 19 19:53 WNW 14 10 Mostly Cloudy BKN008 62 56     80%     29.92 29.91      
Jun 19 18:53 NW 15 10 Partly Cloudy FEW008 SCT010 64 56     75%     29.91 29.91      
Jun 19 17:53 WNW 16 10 Partly Cloudy FEW008 SCT010 66 56     70%     29.91 29.91      
Jun 19 16:53 WNW 18 10 Mostly Clear FEW010 66 56     70%     29.92 29.92      
Jun 19 15:53 WNW 20 10 Mostly Clear and Windy FEW010 68 56     65%     29.94 29.93      
Jun 19 14:53 WNW 18 10 Mostly Clear FEW010 69 57     65%     29.94 29.94      
Jun 19 13:53 NW 16 10 Mostly Clear FEW010 69 57     65%     29.95 29.95      
Jun 19 12:53 WNW 15 10 Mostly Clear FEW014 70 57     63%     29.97 29.96      
Jun 19 12:13 NW 10 10 Mostly Clear FEW014 69 57     65%     29.97        
Jun 19 11:53 WNW 7 10 Mostly Cloudy BKN014 69 56     63%     29.98 29.97      
Jun 19 10:53 NW 9 6 Haze OVC012 66 57     73%     29.97 29.97      
Jun 19 09:53 N 7 6 Haze OVC012 65 56     73%     29.97 29.97      
Jun 19 09:15 Calm 6 Haze OVC011 63 56     78%     29.97        
Jun 19 08:53 Calm 5 Haze OVC009 63 56     78%     29.96 29.96      
Jun 19 07:53 NNE 6 6 Haze OVC008 62 56     80%     29.96 29.95      
Jun 19 06:53 NNE 6 5 Haze OVC008 61 55     81%     29.95 29.94      
Jun 19 05:53 N 7 5 Haze OVC008 61 55     81%     29.94 29.93      
Jun 19 04:53 NNE 6 10 Cloudy OVC008 61 55     81%     29.92 29.92      
Jun 19 03:53 N 5 10 Cloudy OVC010 60 55     83%     29.92 29.92      
Jun 19 02:53 N 7 10 Cloudy FEW006 OVC010 60 55     83%     29.93 29.92      
Jun 19 01:53 NNE 6 10 Cloudy FEW006 OVC010 60 55     83%     29.93 29.92      
Jun 19 00:53 NNW 7 10 Cloudy FEW006 OVC010 60 55     83%     29.94 29.93      
Jun 19 00:05 NNW 5 10 Mostly Cloudy SCT006 BKN012 59 55     87%     29.94        
Jun 18 23:53 NNW 6 10 Partly Cloudy SCT006 59 55     87%     29.94 29.93      
Jun 18 22:53 NNW 8 10 Mostly Cloudy BKN005 59 55     87%     29.94 29.93      
Jun 18 21:53 NW 14 10 Cloudy OVC005 59 55     87%     29.94 29.93      
Jun 18 20:53 NW 15 10 Cloudy OVC005 59 55     87%     29.93 29.92      
Jun 18 20:41 NW 15 10 Mostly Cloudy BKN006 59 55     87%     29.92        
Jun 18 19:53 NW 16 10 Partly Cloudy SCT008 61 55     81%     29.92 29.92      
Jun 18 18:53 WNW 17 10 Mostly Clear FEW008 63 56     78%     29.91 29.91      
Jun 18 17:53 WNW 17 10 Mostly Clear FEW008 68 56     65%     29.91 29.9      
Jun 18 16:53 NW 17 10 Mostly Clear FEW008 68 56     65%     29.92 29.91      
Jun 18 15:53 WNW 17 10 Mostly Clear FEW008 68 56     65%     29.93 29.93      
Jun 18 14:53 WNW 17 10 Mostly Clear FEW008 70 56     61%     29.93 29.93      
Jun 18 13:53 WNW 17 10 Mostly Clear FEW008 69 57     65%     29.94 29.93      
Jun 18 12:53 WNW 16 10 Mostly Clear FEW008 68 56     65%     29.94 29.94      
Jun 18 11:53 WNW 13 10 Mostly Clear FEW008 70 57     63%     29.95 29.95      
Jun 18 10:53 NW 7 10 Clear CLR 69 56     63%     29.95 29.95      
Jun 18 09:53 WNW 9 10 Mostly Clear FEW012 66 57     73%     29.96 29.96      
Jun 18 09:31 WNW 8 10 Mostly Clear FEW010 FEW012 66 56     70%     29.96        
Jun 18 08:53 W 6 10 Mostly Cloudy FEW010 BKN012 64 56     75%     29.95 29.95      
Jun 18 07:53 N 3 7 Cloudy OVC011 62 55     78%     29.94 29.94      
Jun 18 07:48 WNW 3 7 Mostly Cloudy BKN011 63 55     77%     29.94        
Jun 18 06:53 N 5 7 Mostly Clear FEW010 60 55     83%     29.93 29.93      
Jun 18 05:53 NNW 3 6 Fog/Mist FEW010 58 54     87%     29.91 29.91      
Jun 18 04:53 N 3 10 Mostly Clear FEW010 58 53     84%     29.9 29.89      
Jun 18 03:53 N 5 10 Mostly Clear FEW010 58 53     84%     29.89 29.89      
Jun 18 02:53 NNW 8 10 Mostly Clear FEW010 58 53     84%     29.9 29.89      
Jun 18 01:53 N 7 10 Mostly Clear FEW010 58 53     84%     29.89 29.89      
Jun 18 00:53 N 8 10 Mostly Clear FEW010 59 53     81%     29.89 29.88      
Jun 17 23:53 NNW 7 10 Mostly Clear FEW010 59 53     81%     29.89 29.88      
Jun 17 22:53 N 6 10 Mostly Clear FEW010 60 54     80%     29.89 29.89      
Jun 17 21:53 N 8 10 Mostly Clear FEW008 FEW180 60 53     78%     29.88 29.88      
Jun 17 20:53 NW 7 10 Mostly Clear FEW008 FEW160 61 54     78%     29.87 29.86      
Jun 17 19:53 NW 10 10 Mostly Clear FEW010 FEW140 63 54     72%     29.86 29.85      
Jun 17 18:53 NW 13 10 Mostly Clear FEW010 FEW140 65 54     68%     29.84 29.84      
Jun 17 17:53 WNW 15 10 Partly Cloudy FEW010 FEW030 SCT140 66 55     68%     29.83 29.83      
Jun 17 16:53 WNW 17 10 Mostly Clear FEW010 FEW140 68 55     63%     29.83 29.83      
Jun 17 15:53 WNW 15 10 Mostly Clear FEW100 FEW120 70 55     59%     29.84 29.84      
Jun 17 14:53 NW 14 10 Mostly Clear FEW120 70 55     59%     29.85 29.85      
Jun 17 13:53 NW 15 10 Mostly Clear FEW008 FEW120 71 55     57%   71 29.86 29.86      
Jun 17 12:53 WNW 13 10 Mostly Clear FEW008 72 55     55%   71 29.87 29.86      
Jun 17 11:53 W 9 10 Mostly Clear FEW008 FEW250 69 55     61%     29.87 29.87      
Jun 17 10:53 SW 6 10 Mostly Clear FEW008 FEW250 66 54     65%     29.87 29.86      
Jun 17 09:53 S 7 10 Mostly Clear FEW012 FEW250 63 54     72%     29.87 29.87      
Jun 17 08:53 S 6 10 Mostly Cloudy FEW009 BKN012 61 54     78%     29.86 29.86      
Jun 17 07:53 SE 6 10 Cloudy OVC011 61 54     78%     29.85 29.85      
Jun 17 06:53 S 5 10 Cloudy OVC011 60 54     80%     29.85 29.84      
Jun 17 05:53 SW 7 10 Cloudy OVC011 59 52     78%     29.83 29.83      
Jun 17 04:53 WSW 7 10 Cloudy OVC011 59 52     78%     29.83 29.82      
Jun 17 03:53 SW 5 10 Cloudy OVC011 59 52     78%     29.83 29.82      
Jun 17 02:53 SW 7 10 Cloudy OVC009 59 53     81%     29.83 29.83      
May 15 05:53 W 11 10 Cloudy OVC021 55 48     77%     30.01 30.01      
May 14 18:21 W 16 10 Clear   59 49     69%     29.97        
May 13 11:53 WSW 11 10 Mostly Clear FEW015 FEW026 64 50     60%     30.03 30.03      
May 12 14:53 WSW 8 10 Mostly Clear FEW012 70 50     49%     29.89 29.88      
May 12 05:53 NW 6 10 Clear CLR 63 49     60%     29.82 29.82      
May 12 00:53 WNW 10 10 Clear CLR 65 50     58%     29.81 29.8      
May 11 23:53 NW 7 10 Clear CLR 68 40     36%     29.8 29.79      
May 11 12:53 WSW 9 7 Mostly Cloudy BKN250 66 53     63%     29.82 29.82      
Jun 12 03:53 Calm 10 Clear CLR 53 49     86%     30.01 30.01      
Jun 11 18:53   10 Mostly Cloudy FEW015 FEW025 SCT050 BKN200 62 50     65%     29.97 29.97      
Jun 11 13:53   10 Partly Cloudy SCT020 67 48     51%     29.96 29.96      
Jun 11 06:53 WNW 21 10 Mostly Clear and Windy FEW012 57 47     69%     29.93 29.93      
Jun 11 02:53 W 20 10 Mostly Clear and Windy FEW017 57 49     74%     29.93 29.92      
Jun 10 02:53 WNW 14 10 Mostly Clear FEW008 FEW014 57 51     81%     29.97 29.96      
Jun 10 00:38   10 Mostly Clear FEW008 FEW014 58 51     78%     29.99        
Jun 09 04:11 WNW 7 10 Cloudy SCT008 OVC022 61 58     90%     29.96        
Notice The following observation data may not be complete
Jun 09 01:09   10 Cloudy FEW005 BKN013 OVC024          %              
Jun 08 21:53 NNW 7 10 Cloudy FEW010 SCT020 OVC030 64 60     87%     30 29.99      
Jun 08 13:53 W 7 10 Cloudy OVC024 67 55     66%     30.02 30.02   0  
Jun 07 21:03 WSW 13 10 Mostly Cloudy FEW008 FEW016 BKN180 BKN220 62 47     58%     29.93        
Jun 07 17:53   10 Mostly Cloudy FEW012 BKN180 BKN230 63 53     70%     29.93 29.93      
Jun 07 07:53 SW 6 10 Cloudy OVC009 57 52     83%     29.94 29.94      
Notice The following observation data may not be complete
Jun 06 06:23   8 Mostly Cloudy BKN010 BKN014          %              
Jun 05 17:53 W 16 10 Partly Cloudy FEW012 SCT200 69 52     54%     29.88 29.88